[[{"header":{"parameterUnit":"m.s-1","parameterCategory":1,"la1":30.2991,"la2":30.254,"lo1":-89.0895,"lo2":-89.0444,"dy":0.0017,"dx":0.0017,"nx":28,"ny":28,"refTime":"2023-08-11T21:00:00:Z","depth":0,"parameterNumber":2,"parameterNumberName":"U-component_of_WINDS"},"data":[0,0,0,0,0,0,0,0,0,0,0,0,0,0,0,0,0,0,0,0,0,0,0,0,0,0,0,0,0,0,0,0,0,0,0,0,0,0,0,0,0,0,0,0,0,0,0,0,0,0,0,0,0,0,0,0,0,0,4.7155,4.7157,0,4.7299,4.73,4.7302,4.7248,4.7245,4.7242,4.7239,4.7389,4.7395,4.7402,0,0,0,0,0,0,0,0,0,0,0,0,0,4.6836,4.6842,4.7155,4.7157,4.7159,4.7299,4.73,4.7302,4.7249,4.7245,4.7241,4.7237,4.7386,4.7395,4.7403,0,0,0,0,0,0,0,0,0,0,0,0,0,4.6977,4.6844,4.7155,4.7149,4.715,4.7298,4.7301,4.7303,4.725,4.7245,4.724,4.7235,4.7383,4.7394,4.7404,4.7568,0,0,4.7436,4.7441,0,0,0,0,0,0,0,0,4.6969,4.6989,4.7148,4.7149,4.7151,4.7251,4.7243,4.7392,4.7251,4.7212,4.7239,4.7233,4.7347,4.736,4.7398,4.7575,4.7581,4.7437,4.7444,4.7448,4.7451,0,0,0,0,0,0,0,4.6959,4.6982,4.7212,4.715,4.7152,4.714,4.7154,4.7271,4.7305,4.7215,4.7211,4.7229,4.7347,4.7388,4.7401,4.7583,4.7437,4.7446,4.7453,4.7457,4.7902,4.7907,0,0,0,0,0,0,4.6949,4.6974,4.7207,4.7216,4.7046,4.7149,4.7165,4.7224,4.7304,4.7311,4.7233,4.7226,4.7372,4.7389,4.7406,4.7603,4.7448,4.7458,4.7464,4.7896,4.7903,4.7909,0,0,0,0,0,0,4.6942,4.697,4.7201,4.7094,4.7123,4.716,4.7226,4.7229,4.727,4.7317,4.7324,4.7269,4.7369,4.7391,4.7528,4.7607,4.7463,4.7473,4.789,4.7899,4.7906,4.7998,0,0,0,0,0,0,4.6933,4.6968,4.703,4.7096,4.7129,4.732,4.723,4.7235,4.7288,4.728,4.7353,4.736,4.7367,4.7512,4.7538,4.7619,4.7481,4.7883,4.7894,4.7903,4.7988,4.8008,4.8025,0,0,0,0,0,4.6922,4.7051,4.7033,4.7062,4.7207,4.7325,4.7344,4.7349,4.7295,4.7358,4.7388,4.7358,4.7594,4.7527,4.7556,4.7641,4.7878,4.7891,4.7903,4.7979,4.8004,4.8025,0,0,0,0,0,0,4.6994,4.7059,4.7041,4.7195,4.7255,4.7316,4.7395,4.7375,4.7452,4.7441,4.7445,4.7462,4.7602,4.7635,4.7559,4.7803,4.7728,4.7747,4.7777,4.78,4.7819,4.7808,4.749,0,0,0,0,0,4.7027,4.7117,4.7169,4.73,4.7331,4.7358,4.741,4.7408,4.7471,4.7496,4.7537,4.7599,4.7688,4.7746,4.783,4.7992,4.8007,4.8065,4.8084,4.8099,4.8115,4.8203,4.823,4.795,4.7949,4.7949,0,0,4.7098,4.7145,4.7201,4.7316,4.7362,4.7455,4.738,4.7482,4.7551,4.7512,4.7643,4.7675,4.7745,4.7895,4.7963,4.7927,4.8196,4.8115,4.8127,4.8135,4.8219,4.8245,4.8269,4.7958,4.7956,4.7955,0,0,4.7274,4.7318,4.7432,4.748,4.755,4.7567,4.7595,4.766,4.7679,4.781,4.7783,4.7866,4.8018,4.8069,4.8115,4.831,4.8285,4.8338,4.8436,4.8522,4.8544,4.8564,4.8633,4.8658,4.8354,4.8354,4.8354,0,4.7353,4.7491,4.7493,4.7597,4.7649,4.7616,4.7732,4.7778,4.7873,4.791,4.7868,4.8058,4.8103,4.8264,4.8312,4.835,4.8382,4.8329,4.8541,4.856,4.8579,4.8645,4.8671,4.836,4.8359,4.8359,4.8358,0,4.7585,4.7682,4.7765,4.7856,4.7917,4.8027,4.8045,4.8107,4.81,4.8122,4.8257,4.8309,4.8403,4.8442,4.8437,4.8603,4.8578,4.8539,4.8463,4.8611,4.8673,4.8699,4.8368,4.8366,4.8364,4.8363,0,0,4.781,4.7901,4.7931,4.7972,4.8048,4.8123,4.8231,4.8322,4.8375,4.8442,4.8533,4.8662,4.8626,4.8678,4.8679,4.8754,4.8905,4.8705,4.8707,4.874,4.9092,4.9121,4.915,4.8889,4.8894,4.8898,4.9086,0,4.7992,4.818,4.8185,4.8358,4.8448,4.8418,4.8512,4.8569,4.8593,4.8673,4.8699,4.8791,4.8736,4.8767,4.884,4.8871,4.8976,4.8858,4.8974,4.8978,4.8957,4.9183,4.9214,4.9388,4.911,4.9114,4.9117,0,4.8229,4.8302,4.8484,4.8546,4.8584,4.8669,4.8752,4.8829,4.8893,4.8905,4.8963,4.8952,4.9063,4.8985,4.9138,4.9057,4.9105,4.9128,4.9135,4.9145,4.9056,4.9199,4.9444,4.947,4.9156,4.9153,4.915,0,4.8375,4.8519,4.8646,4.8682,4.8758,4.8818,4.8853,4.8912,4.8967,4.904,4.9076,4.9162,4.9209,4.9276,4.9289,4.923,4.9443,4.9365,4.9456,4.9456,4.9502,4.9498,4.9757,4.9533,4.9533,4.9532,4.9532,0,4.8577,4.8689,4.8712,4.8791,4.8916,4.892,4.9044,4.9075,4.9128,4.9212,4.9192,4.9272,4.9284,4.9367,4.9378,4.9503,4.9524,4.9537,4.9539,4.9539,4.9537,4.957,4.9558,4.9539,4.9538,4.9536,4.9535,0,4.8761,4.8781,4.8917,4.8978,4.8996,4.9086,4.9138,4.9213,4.9234,4.9341,4.9366,4.94,4.9496,4.9515,4.963,4.9637,4.9786,4.9776,4.9764,4.9763,4.9852,4.9844,5.0141,5.018,4.9931,4.9933,4.9935,0,4.8888,4.8974,4.9044,4.9098,4.9135,4.9223,4.9278,4.9287,4.9345,4.9424,4.949,4.9584,4.966,4.9815,4.985,4.9937,4.9929,5.0027,4.9942,4.9939,4.993,4.9924,4.9933,5.0043,5.0046,5.0048,5.005,0,4.9113,4.9118,4.9198,4.9282,4.9348,4.9414,4.9477,4.9523,4.954,4.9607,4.9704,4.9763,4.9879,4.9972,5.006,5.0096,5.0077,5.0077,5.0102,5.0103,5.0092,5.0099,4.9808,5.007,5.0068,5.0066,5.0065,5.0064,4.9272,4.9347,4.9407,4.9497,4.9545,4.9604,4.9677,4.9707,4.9789,4.9883,4.9883,4.999,5.0052,5.0167,5.0209,5.0293,5.0262,5.0299,5.0309,5.0318,5.0326,5.0079,5.0309,5.0309,5.0308,5.0308,5.0307,0,4.9495,4.9532,4.9615,4.9703,4.9774,4.9748,4.9816,4.9877,4.9971,5.003,5.0105,5.0217,5.0308,5.035,5.0439,5.0499,5.0492,5.0522,5.0517,5.0526,5.0348,5.0317,5.0526,5.0526,5.0526,5.0526,5.0526,5.0525,4.962,4.9744,4.9757,4.9905,4.9942,5.0045,5.0086,5.0141,5.0188,5.0314,5.0389,5.0415,5.0468,5.0561,5.0643,5.0653,5.0687,5.0722,5.0728,5.0561,5.0539,5.0517,5.0488,5.0729,5.0729,5.0898,5.09,5.0901]},{"header":{"parameterUnit":"m.s-1","parameterCategory":1,"la1":30.2991,"la2":30.254,"lo1":-89.0895,"lo2":-89.0444,"dy":0.0017,"dx":0.0017,"nx":28,"ny":28,"refTime":"2023-08-11T21:00:00:Z","depth":0,"parameterNumber":3,"parameterNumberName":"V-component_of_WINDS"},"data":[0,0,0,0,0,0,0,0,0,0,0,0,0,0,0,0,0,0,0,0,0,0,0,0,0,0,0,0,0,0,0,0,0,0,0,0,0,0,0,0,0,0,0,0,0,0,0,0,0,0,0,0,0,0,0,0,0,0,-0.6155,-0.6156,0,-0.6204,-0.6205,-0.6206,-0.6242,-0.6242,-0.6243,-0.6243,-0.6294,-0.6295,-0.6296,0,0,0,0,0,0,0,0,0,0,0,0,0,-0.6094,-0.6095,-0.6155,-0.6156,-0.6156,-0.6204,-0.6205,-0.6206,-0.6242,-0.6242,-0.6243,-0.6243,-0.6293,-0.6295,-0.6296,0,0,0,0,0,0,0,0,0,0,0,0,0,-0.6129,-0.6095,-0.6155,-0.618,-0.6183,-0.6204,-0.6205,-0.6206,-0.6242,-0.6242,-0.6243,-0.6243,-0.6293,-0.6295,-0.6296,-0.6296,0,0,-0.6301,-0.6302,0,0,0,0,0,0,0,0,-0.6127,-0.6132,-0.6176,-0.6179,-0.6182,-0.6217,-0.6202,-0.6236,-0.6242,-0.6219,-0.6243,-0.6243,-0.6268,-0.6272,-0.628,-0.6299,-0.6301,-0.6301,-0.6302,-0.6303,-0.6303,0,0,0,0,0,0,0,-0.6125,-0.613,-0.6175,-0.6176,-0.618,-0.6189,-0.6195,-0.6209,-0.6241,-0.6221,-0.6224,-0.6229,-0.627,-0.6278,-0.6281,-0.6302,-0.6301,-0.6303,-0.6304,-0.6304,-0.6324,-0.6324,0,0,0,0,0,0,-0.6118,-0.6127,-0.6173,-0.6176,-0.6155,-0.619,-0.6196,-0.6205,-0.624,-0.6246,-0.6229,-0.6231,-0.6275,-0.628,-0.6283,-0.6286,-0.6303,-0.6304,-0.6305,-0.6325,-0.6324,-0.6324,0,0,0,0,0,0,-0.6117,-0.6122,-0.6171,-0.6153,-0.616,-0.6191,-0.6201,-0.6206,-0.6215,-0.6246,-0.6252,-0.6232,-0.6276,-0.6281,-0.6293,-0.6288,-0.6305,-0.6306,-0.6325,-0.6324,-0.6324,-0.6292,0,0,0,0,0,0,-0.6115,-0.6121,-0.6121,-0.6152,-0.616,-0.6179,-0.62,-0.6207,-0.6217,-0.622,-0.625,-0.6256,-0.6277,-0.629,-0.6295,-0.6291,-0.6308,-0.6326,-0.6325,-0.6324,-0.6293,-0.629,-0.6287,0,0,0,0,0,-0.6113,-0.611,-0.6121,-0.6126,-0.6161,-0.6179,-0.6184,-0.6208,-0.6217,-0.6217,-0.6238,-0.6255,-0.6288,-0.6291,-0.6296,-0.6293,-0.6326,-0.6325,-0.6324,-0.6294,-0.6291,-0.6287,0,0,0,0,0,0,-0.6078,-0.6115,-0.6127,-0.6135,-0.6153,-0.6185,-0.6186,-0.6203,-0.6219,-0.6221,-0.6251,-0.6257,-0.6266,-0.6281,-0.6284,-0.6296,-0.6309,-0.6309,-0.6285,-0.6282,-0.6279,-0.6275,-0.6309,0,0,0,0,0,-0.6071,-0.6082,-0.6114,-0.6118,-0.6127,-0.6155,-0.6164,-0.618,-0.6201,-0.6209,-0.623,-0.625,-0.6265,-0.6274,-0.629,-0.6296,-0.6303,-0.6296,-0.6293,-0.6291,-0.629,-0.6295,-0.6292,-0.6321,-0.6321,-0.6321,0,0,-0.6057,-0.6079,-0.6084,-0.6111,-0.6128,-0.6139,-0.6161,-0.6172,-0.6181,-0.6211,-0.6223,-0.624,-0.6264,-0.6273,-0.6278,-0.6285,-0.6284,-0.6289,-0.6287,-0.6288,-0.6293,-0.629,-0.6288,-0.632,-0.632,-0.632,0,0,-0.6038,-0.6055,-0.606,-0.6076,-0.6101,-0.612,-0.6121,-0.6151,-0.6163,-0.6176,-0.6199,-0.621,-0.6235,-0.6251,-0.6263,-0.625,-0.6267,-0.6255,-0.6239,-0.6243,-0.624,-0.6239,-0.6234,-0.6232,-0.6254,-0.6254,-0.6254,0,-0.6017,-0.6035,-0.6061,-0.607,-0.6082,-0.611,-0.6115,-0.613,-0.6158,-0.6166,-0.6174,-0.6207,-0.6225,-0.6238,-0.6235,-0.6244,-0.6246,-0.6251,-0.6239,-0.6237,-0.6236,-0.6232,-0.623,-0.6253,-0.6253,-0.6253,-0.6253,0,-0.6009,-0.6021,-0.6022,-0.6048,-0.606,-0.6068,-0.6095,-0.6104,-0.612,-0.6138,-0.6152,-0.6175,-0.6195,-0.62,-0.6216,-0.6216,-0.622,-0.6233,-0.6247,-0.6231,-0.6227,-0.6226,-0.625,-0.6251,-0.6251,-0.6252,0,0,-0.5967,-0.6009,-0.6009,-0.6022,-0.6051,-0.6061,-0.6071,-0.6091,-0.6098,-0.6117,-0.6126,-0.6147,-0.616,-0.6173,-0.6191,-0.6194,-0.6183,-0.6207,-0.6208,-0.6202,-0.6185,-0.6174,-0.6172,-0.6195,-0.6195,-0.6194,-0.6182,0,-0.5952,-0.5969,-0.5993,-0.6003,-0.6014,-0.6042,-0.605,-0.6069,-0.6087,-0.61,-0.612,-0.6134,-0.6149,-0.6158,-0.6163,-0.6183,-0.618,-0.6185,-0.6203,-0.6203,-0.6195,-0.617,-0.6159,-0.6146,-0.6181,-0.6181,-0.6181,0,-0.5936,-0.5954,-0.5964,-0.5994,-0.5999,-0.6006,-0.6027,-0.6039,-0.6062,-0.6074,-0.6089,-0.6109,-0.6121,-0.6134,-0.6151,-0.6154,-0.6163,-0.6174,-0.6174,-0.6176,-0.619,-0.6171,-0.6143,-0.6141,-0.6179,-0.6179,-0.618,0,-0.5904,-0.5931,-0.5941,-0.5951,-0.5985,-0.599,-0.6004,-0.6028,-0.6039,-0.6057,-0.6065,-0.6084,-0.6095,-0.611,-0.6135,-0.6142,-0.6149,-0.6164,-0.616,-0.6159,-0.6159,-0.6159,-0.6132,-0.6166,-0.6166,-0.6166,-0.6166,0,-0.5884,-0.589,-0.5927,-0.5933,-0.594,-0.5968,-0.5974,-0.5992,-0.6013,-0.6023,-0.6048,-0.6057,-0.609,-0.6103,-0.6122,-0.6133,-0.6138,-0.6149,-0.6154,-0.6146,-0.6145,-0.6152,-0.6153,-0.6166,-0.6166,-0.6166,-0.6166,0,-0.585,-0.5875,-0.5888,-0.5919,-0.5928,-0.5931,-0.5959,-0.5966,-0.5986,-0.5998,-0.6003,-0.6033,-0.605,-0.6077,-0.6102,-0.6115,-0.6122,-0.6131,-0.6114,-0.6117,-0.6111,-0.6111,-0.6087,-0.6085,-0.6121,-0.6121,-0.612,0,-0.5835,-0.584,-0.5872,-0.5881,-0.5894,-0.5908,-0.5919,-0.5947,-0.5958,-0.5985,-0.5989,-0.6008,-0.6024,-0.605,-0.6075,-0.6094,-0.6103,-0.6094,-0.6106,-0.6099,-0.6103,-0.6102,-0.6103,-0.609,-0.609,-0.6089,-0.6089,0,-0.5806,-0.5818,-0.5833,-0.5853,-0.5865,-0.5882,-0.5901,-0.5906,-0.5939,-0.595,-0.5967,-0.598,-0.6005,-0.6024,-0.6047,-0.6063,-0.6081,-0.6085,-0.6085,-0.6077,-0.6067,-0.6072,-0.6106,-0.6085,-0.6086,-0.6086,-0.6086,-0.6086,-0.578,-0.5786,-0.581,-0.5826,-0.5843,-0.5859,-0.5867,-0.5888,-0.5903,-0.5926,-0.5942,-0.5958,-0.5982,-0.6015,-0.603,-0.6043,-0.6051,-0.6051,-0.6051,-0.6051,-0.6048,-0.6065,-0.6048,-0.6048,-0.6048,-0.6048,-0.6048,0,-0.5752,-0.5769,-0.5783,-0.5808,-0.5821,-0.5838,-0.5859,-0.5869,-0.5883,-0.5903,-0.5919,-0.5939,-0.5958,-0.5984,-0.6005,-0.601,-0.602,-0.6015,-0.6014,-0.6018,-0.6039,-0.6037,-0.6007,-0.6007,-0.6007,-0.6007,-0.6007,-0.6007,-0.5739,-0.5749,-0.5764,-0.5783,-0.5801,-0.5817,-0.5827,-0.5843,-0.586,-0.5881,-0.5896,-0.5913,-0.5937,-0.5959,-0.5977,-0.5984,-0.5991,-0.5983,-0.5993,-0.6012,-0.6016,-0.602,-0.6018,-0.5984,-0.5984,-0.597,-0.597,-0.597]}]]